Miscellaneous Local Product
Issued by NWS North Platte, NE

Home | Current Version | Previous Version | Text Only | Print | Product List | Glossary On
Versions: 1 2 3 4 5 6 7 8 9 10 11 12 13 14 15 16 17 18 19 20 21 22 23 24 25 26 27 28 29 30 31 32 33 34 35 36 37 38 39 40 41 42 43 44 45 46 47 48 49 50
000
AXUS43 KLBF 270510
MISLBF


WESTERN AND NORTH CENTRAL NEBRASKA HOURLY WEATHER ROUNDUP
NATIONAL WEATHER SERVICE NORTH PLATTE NE
1200 AM CDT WED AUG 27 2014

***STATIONS NOT REPORTING VARIABLES SUCH AS SKY/WEATHER OR
PRESSURE ARE PROVIDED BY THE NEBRASKA DEPARTMENT OF
ROADS...RAWS...AND APRS NETWORKS...AND ARE NOT UNDER
NATIONAL WEATHER SERVICE QUALITY CONTROL***

...OBSERVATIONS IN AND NEAR THE EASTERN PANHANDLE OF NEBRASKA...

CITY           SKY/WX    TMP DP  RH WIND       PRES   REMARKS
PINE RIDGE     FOG       55  55 100 MISG      30.14S VSB 3/4
CHADRON        MOCLDY    66  60  81 N3        30.12F
ALLIANCE       MOCLDY    69  62  78 SE13      30.15S
SIDNEY         CLOUDY    68  61  78 SE7       30.18S
WHITECLAY        N/A     62  60  94 CALM        N/A
RUSHVILLE        N/A     63  61  94 NE10        N/A
GORDON           N/A     71  65  81 N6          N/A
CRESCENT LAKE    N/A     67  62  83 S6          N/A
LISCO            N/A     73  64  73 E8          N/A
BIG SPRINGS      N/A     67  64  90 CALM        N/A
$$

...OBSERVATIONS IN NORTH CENTRAL NEBRASKA...

CITY           SKY/WX    TMP DP  RH WIND       PRES   REMARKS
VALENTINE      CLOUDY    69  64  84 S6        30.12S
THEDFORD       PTCLDY    68  64  87 SE8       30.16S
AINSWORTH      MOCLDY    66  64  94 SE7       30.15R
O`NEILL        MOCLDY    67  65  94 SE9       30.16S
ORD            MOCLDY    67  66  97 SE7       30.15S
BROKEN BOW     MOCLDY    69  66  90 E6        30.16R
BROWNLEE         N/A     69  64  84 SE10        N/A
SPRINGVIEW       N/A     65  62  89 E3          N/A
ROSE             N/A     69  69  99 E10         N/A
NEWPORT          N/A     66  66 100 SE9         N/A
SARGENT          N/A     67  65  95 CALM        N/A
COMSTOCK         N/A     73  72  94 E8          N/A
CHAMBERS         N/A     67  65  94 E3          N/A
$$

...OBSERVATIONS IN SOUTHWEST NEBRASKA AND FAR NORTHEAST COLORADO...

CITY           SKY/WX    TMP DP  RH WIND       PRES   REMARKS
WRAY             N/A     70  59  69 E3        30.16S
HOLYOKE        FAIR      66  63  88 E7        30.17F
IMPERIAL       CLOUDY    70  65  84 SE8       30.17R
OGALLALA       CLOUDY    67  63  84 E8        30.15F
NORTH PLATTE   MOCLDY    67  65  93 E7        30.14F
MCCOOK         CLOUDY    72  68  87 E9        30.11S
LEXINGTON      CLOUDY    71  69  92 E9        30.14S
PAXTON           N/A     67  63  88 CALM        N/A
SUTHERLAND       N/A     68  65  90 CALM        N/A
BRADY            N/A     68  65  89 CALM        N/A
GOTHENBURG       N/A     69  64  83 E5          N/A
CALLAWAY         N/A     68  66  94 E8          N/A
$$

...SOME WEATHER OBSERVATIONS FROM AROUND THE REGION...

CITY           SKY/WX    TMP DP  RH WIND       PRES   REMARKS
DENVER         CLOUDY    63  55  75 SW8       30.21F
LARAMIE        PTCLDY    56  43  61 CALM      30.31S
CHEYENNE       MOCLDY    58  52  80 SE5       30.26S
SCOTTSBLUFF    MOCLDY    64  57  78 E9        30.13R
RAPID CITY     MOCLDY    63  54  72 CALM      30.17R
PIERRE         PTCLDY    57  54  89 NE10      30.14S
WINNER         FAIR      64  59  83 E9        30.13R
SIOUX FALLS    MOCLDY    62  57  83 E5        30.18S
OMAHA          MOCLDY    71  65  81 E6        30.12S
GRAND ISLAND   PTCLDY    69  66  90 E6        30.15R FOG
KANSAS CITY    MOCLDY    78  71  79 NE7       30.09S
WICHITA        MOCLDY    81  67  62 E5        30.07R
HAYS           CLOUDY    73  64  73 SE6       30.10S
LIBERAL        CLOUDY    72  63  73 N9        30.18F
GOODLAND       RAIN      65  62  90 SW12      30.22F
$$



USA.gov is the U.S. government's official web portal to all federal, state and local government web resources and services.